Hourly Data Report for April 01, 2017

MIRAMICHI RCS
NEW BRUNSWICK

47°00'34.000" N
65°27'54.000" W
33.00 m
8100989
71744
ACQ

Download Data

Hourly Data (April 2017)
Hourly Data Report for April 1, 2017
TIME
LST
Temp Definition
°C
Dew Point Definition
°C
Rel Hum Definition
%
Precip. Amount Definition
mm

Wind Dir Definition
10's deg

Wind Spd Definition
km/h
Visibility Definition
km
Stn Press Definition
kPa
Hmdx Definition


Wind Chill Definition


Weather Definition


00:00 -6.7 -9.1 83 0.0 29 4   101.77   -9 LegendNANA
01:00 -8.3 -10.2 86 0.0 27 5   101.76   -11 LegendNANA
02:00 -8.4 -10.2 87 0.0 27 3   101.73   -10 LegendNANA
03:00 -9.3 -11.1 87 0.0 28 3   101.69   -11 LegendNANA
04:00 -10.2 -11.5 90 0.0   0   101.66     LegendNANA
05:00 -10.0 -11.7 88 0.0   0   101.68     LegendNANA
06:00 -9.7 -11.8 85 0.0 26 2   101.71   -11 LegendNANA
07:00 -7.6 -10.4 80 0.0 27 2   101.72   -9 LegendNANA
08:00 -5.7 -10.0 72 0.0 25 3   101.75   -7 LegendNANA
09:00 -1.9 -10.5 52 0.0 0 1   101.71   -2 LegendNANA
10:00 0.3 -9.8 47 0.0 8 24   101.69     LegendNANA
11:00 0.6 -7.6 54 0.0 7 21   101.65     LegendNANA
12:00 1.7 -5.6 58 0.0 8 15   101.59     LegendNANA
13:00 1.4 -9.0 46 0.0 6 18   101.55     LegendNANA
14:00 1.2 -8.0 50 0.0 5 18   101.52     LegendNANA
15:00 1.1 -6.9 55 0.0 6 17   101.47     LegendNANA
16:00 0.7 -6.0 61 0.0 6 16   101.43     LegendNANA
17:00 0.1 -5.0 68 0.0 5 12   101.40     LegendNANA
18:00 -0.9 -5.1 73 0.0 5 13   101.41   -5 LegendNANA
19:00 -1.5 -4.6 79 0.0 6 12   101.40   -6 LegendNANA
20:00 -1.8 -3.9 86 0.0 7 11   101.40   -6 LegendNANA
21:00 -2.1 -3.6 89 0.0 7 13   101.38   -7 LegendNANA
22:00 -2.1 -3.6 89 0.0 6 9   101.34   -6 LegendNANA
23:00 -2.2 -3.8 88 0.0 4 7   101.32   -5 LegendNANA

Notes on Data Quality.

Legend

  • E = Estimated
  • M = Missing
  • NA = Not Available*
  • [empty] = Indicates an unobserved value
Date modified: